Wind_Speed
13 13 13 13 14 14 14 14 14 13 12 11 11 10 10 11 10 9 9 9 8 8 7 7 6 6 6 6 7 7 7 7 7 7 7 7 7 7 7 7 7 7 8
14 14 14 14 14 14 14 14 14 14 13 12 11 10 10 9 9 9 10 9 8 7 7 7 6 6 6 6 6 7 8 7 7 7 7 7 7 7 7 7 7 8 8
14 15 15 15 15 15 15 15 15 14 13 12 12 11 10 10 9 9 9 9 8 8 8 8 7 7 7 7 7 7 8 8 7 7 7 7 7 7 6 7 7 8 9
15 15 16 16 16 16 16 15 15 14 14 13 12 11 11 10 10 9 9 9 9 8 8 8 8 7 7 7 7 7 8 8 8 7 7 7 7 7 6 7 8 8 9
14 15 15 16 16 17 17 16 16 15 15 13 12 12 11 11 10 9 9 9 9 9 8 8 8 7 7 7 7 7 8 8 8 8 7 7 7 7 7 8 9 9 10
14 15 15 16 16 17 17 17 17 16 15 14 13 13 12 11 10 10 10 10 9 9 8 8 8 8 7 7 7 8 8 8 8 8 8 7 8 8 9 9 9 10 10
15 15 14 15 16 16 16 16 16 16 16 15 15 14 13 13 12 10 10 10 9 9 8 8 8 8 7 7 8 8 8 8 8 8 7 7 8 8 9 9 9 10 10
15 15 15 15 15 16 16 17 17 16 16 16 16 15 14 13 12 11 10 10 10 9 9 8 8 8 8 8 8 9 9 9 9 8 8 8 8 9 9 10 10 11 11
15 15 15 16 16 16 17 17 18 18 17 17 16 16 15 14 13 12 11 10 10 10 9 9 9 8 8 8 8 8 8 8 9 9 8 9 9 10 10 10 11 11 11
15 15 16 17 18 18 18 18 18 18 18 17 17 16 15 14 13 12 11 11 10 10 9 9 9 9 9 9 8 8 8 8 8 8 9 9 10 10 11 11 12 12 11
16 16 17 17 19 19 18 17 18 18 17 17 17 17 16 15 14 13 11 11 10 10 9 10 9 9 9 9 9 9 9 9 10 10 10 10 11 11 12 12 12 12 12
16 17 18 18 18 19 18 17 17 16 16 16 16 16 16 15 14 13 12 12 11 10 10 11 10 10 10 10 10 9 10 10 11 11 11 11 11 12 12 13 13 13 14
15 16 18 18 18 18 18 18 17 16 16 16 16 16 15 15 14 14 13 12 12 11 11 11 11 10 10 11 11 11 11 11 12 11 12 13 13 13 13 14 14 14 15
14 15 16 17 17 17 18 18 17 16 16 16 15 16 15 15 15 15 14 13 13 12 12 11 11 11 11 11 12 12 13 13 13 13 14 15 15 15 15 15 15 16 16
13 14 16 16 16 17 17 17 17 17 17 16 15 15 16 16 16 15 14 13 13 13 12 12 12 12 13 14 14 14 14 14 14 14 15 15 16 16 16 16 17 17 17
12 13 14 15 16 16 17 17 16 17 17 17 16 16 16 16 16 16 15 14 14 13 13 12 13 13 14 15 15 15 15 16 16 16 16 16 17 17 17 17 18 18 19
13 14 14 16 17 17 17 16 16 17 17 17 17 16 16 17 17 16 16 15 15 14 14 14 14 14 15 15 16 16 17 17 17 17 17 18 18 19 19 20 20 20 20
13 14 15 15 16 16 16 16 16 16 16 17 17 16 16 17 17 17 16 16 16 16 16 15 15 16 16 16 16 16 17 18 18 18 18 19 19 20 21 21 21 21 21
14 14 16 16 16 16 16 16 16 16 15 15 16 16 17 17 17 17 17 17 17 17 16 16 16 16 17 17 17 17 17 18 18 19 19 19 20 21 21 22 22 23 23
14 14 15 15 15 15 16 17 17 16 16 15 15 16 17 17 17 17 18 17 17 17 17 17 17 17 17 18 18 18 18 18 19 19 20 20 21 22 22 23 23 24 25
15 15 15 15 15 16 16 16 16 16 16 16 16 16 16 16 16 16 17 17 17 16 16 17 17 17 18 18 18 18 18 19 19 20 21 22 23 23 24 25 26 27 27
15 15 15 15 15 15 16 16 16 16 17 17 16 16 16 16 16 16 17 17 17 16 16 17 17 18 18 18 19 19 19 20 20 22 22 23 23 24 25 27 27 28 29
14 15 15 15 15 15 16 17 17 17 17 17 17 17 17 17 17 17 17 17 18 18 18 17 18 18 19 20 20 20 20 21 22 23 24 25 25 26 27 28 29 29 30
15 15 15 15 15 15 16 16 16 17 18 18 18 18 18 18 18 18 18 18 19 19 19 19 19 20 20 20 21 21 22 22 23 24 25 26 26 27 28 28 29 29 30
15 15 15 16 16 16 16 17 17 17 17 18 18 18 18 18 18 19 19 20 20 19 19 20 20 20 21 22 22 23 23 23 24 25 26 27 27 27 28 29 30 30 31
17 16 16 17 17 17 17 17 17 18 18 18 19 19 19 19 19 20 20 20 20 20 20 21 21 22 23 23 23 24 24 25 26 27 27 28 28 28 29 31 31 32 32
Wind_Direction
229 233 230 226 223 220 220 218 220 222 225 229 231 235 236 237 240 247 253 260 263 269 273 280 283 286 296 303 306 312 316 314 309 302 297 291 286 282 279 278 277 276 272
232 233 231 226 221 219 219 218 218 218 221 223 223 231 235 237 243 249 254 256 258 266 268 272 276 280 289 299 304 307 312 313 309 303 297 294 291 284 281 279 278 279 275
231 233 230 226 219 217 218 220 220 220 221 222 225 229 229 236 245 249 252 252 255 262 268 272 272 276 283 292 300 306 310 311 309 306 300 294 290 284 281 281 282 282 279
233 232 230 226 221 220 221 223 223 225 226 224 225 230 232 236 240 247 250 250 256 259 263 266 268 273 280 290 298 305 309 310 307 305 302 298 293 286 286 286 286 287 287
232 230 227 224 223 224 224 225 223 225 229 229 229 229 231 234 240 245 248 252 254 256 261 262 263 269 277 283 291 300 305 309 306 304 302 299 294 291 289 287 289 292 294
229 229 226 224 226 226 227 228 227 227 229 231 233 235 236 237 241 247 249 249 252 255 255 257 260 269 278 280 287 295 297 302 303 303 303 301 297 295 292 290 290 291 293
232 232 227 227 228 228 229 229 229 231 231 231 234 237 238 241 245 246 250 247 246 249 253 259 263 268 277 283 286 289 292 295 298 300 302 303 302 299 297 295 293 293 294
232 231 229 229 230 230 229 229 229 230 231 232 234 236 238 240 242 246 251 250 244 246 253 257 262 267 274 284 287 287 287 290 291 292 295 298 300 300 300 298 300 301 300
231 230 231 229 230 230 230 229 230 230 230 233 233 232 238 239 238 244 249 253 245 245 251 257 261 266 272 277 286 288 291 292 292 295 294 294 296 300 304 304 305 306 307
234 234 234 232 231 231 232 230 232 234 235 235 233 234 235 238 240 243 247 248 243 241 246 255 261 265 272 275 279 284 287 290 293 294 297 297 301 303 305 305 307 307 305
238 237 236 234 233 232 233 234 233 235 235 234 233 233 234 236 239 240 241 245 243 239 243 252 260 266 273 277 279 281 283 286 288 293 298 300 301 303 304 305 306 304 303
242 240 237 234 234 233 232 232 232 232 232 232 231 231 234 235 235 238 241 244 247 250 250 251 259 269 273 276 277 279 283 286 289 293 297 302 306 305 307 308 307 303 303
244 241 237 234 234 232 229 228 231 231 230 231 230 231 232 234 236 239 242 243 247 252 257 257 260 265 270 274 277 279 284 286 289 290 294 298 300 301 304 307 307 304 301
246 242 238 233 230 228 228 230 230 229 227 229 230 229 231 233 235 239 241 244 248 253 256 261 266 268 271 273 277 281 283 286 286 289 293 296 297 297 300 302 303 304 302
245 241 238 233 231 230 231 230 230 228 227 229 230 230 233 234 235 238 242 246 249 253 256 259 268 270 273 276 277 280 282 283 285 289 292 293 296 298 299 300 301 302 302
242 239 236 234 234 234 233 230 230 229 229 229 231 234 235 235 235 238 242 247 251 254 257 261 267 271 276 280 280 280 282 282 285 288 290 292 294 296 298 299 300 300 300
242 238 235 235 233 235 235 233 231 231 231 231 233 235 239 238 237 240 244 248 252 257 259 263 268 273 279 285 285 283 285 285 284 287 290 291 293 294 295 296 296 297 297
243 238 235 235 233 233 234 233 230 229 231 232 234 238 242 242 241 243 246 250 254 258 260 264 269 272 277 283 286 288 289 290 288 288 291 292 294 294 295 295 296 297 298
243 241 240 239 237 235 234 231 228 228 231 234 237 241 242 243 244 248 250 253 256 256 259 264 268 271 276 281 283 286 288 290 290 290 291 294 295 296 296 296 296 297 298
242 242 241 240 237 235 233 234 233 233 236 239 240 243 245 246 250 252 253 255 257 259 260 263 268 273 277 283 285 287 289 290 290 291 292 292 294 296 296 297 297 298 298
243 244 244 243 241 238 235 235 233 235 239 242 244 247 249 251 253 256 257 258 260 262 265 266 270 275 280 285 289 290 291 292 291 293 295 294 293 294 295 296 297 298 299
241 242 242 242 241 240 237 236 237 239 243 246 246 248 250 252 256 259 259 259 260 262 268 269 271 277 282 286 290 291 291 293 295 296 296 298 296 295 295 296 298 298 299
242 242 242 243 244 242 241 240 240 243 247 249 249 250 250 253 257 260 261 262 260 261 267 270 272 277 282 286 288 289 290 292 295 296 297 297 298 298 297 297 298 298 298
245 246 248 248 248 246 244 245 245 247 248 250 251 251 252 255 258 260 261 263 265 265 268 272 275 278 281 286 287 289 290 292 295 296 297 298 298 299 300 298 298 299 299
245 247 250 249 247 246 247 250 249 249 251 251 251 253 255 257 258 260 263 264 265 266 267 269 274 279 281 284 287 288 289 293 296 297 298 298 298 299 301 300 299 299 300
246 248 249 249 249 249 249 249 252 253 254 253 252 253 255 257 259 260 263 265 267 266 266 268 272 277 281 284 286 288 289 293 296 297 298 298 299 298 300 301 301 300 301
Height
5858 5859 5860 5862 5864 5865 5867 5869 5870 5872 5873 5874 5876 5877 5878 5879 5879 5880 5881 5881 5881 5880 5880 5880 5880 5879 5879 5878 5877 5876 5874 5873 5872 5871 5870 5869 5868 5868 5868 5867 5867 5867 5867
5855 5857 5858 5860 5861 5863 5864 5866 5868 5869 5871 5872 5874 5875 5876 5877 5878 5878 5879 5879 5879 5879 5879 5879 5878 5878 5877 5876 5875 5875 5873 5872 5871 5870 5869 5868 5868 5867 5866 5866 5866 5866 5865
5852 5854 5856 5857 5859 5861 5862 5864 5865 5867 5869 5870 5871 5872 5873 5875 5876 5876 5877 5877 5877 5877 5877 5877 5877 5876 5876 5875 5874 5873 5872 5871 5870 5868 5868 5867 5866 5866 5866 5865 5865 5864 5864
5849 5851 5853 5855 5856 5858 5860 5862 5863 5865 5866 5868 5869 5870 5871 5873 5873 5874 5874 5875 5875 5875 5875 5875 5875 5875 5874 5873 5873 5872 5871 5870 5869 5868 5867 5866 5865 5864 5864 5864 5863 5863 5862
5846 5848 5850 5852 5854 5855 5857 5859 5861 5862 5864 5865 5867 5868 5869 5870 5871 5872 5872 5873 5873 5873 5874 5874 5873 5873 5873 5872 5871 5870 5869 5868 5867 5866 5865 5864 5864 5863 5863 5862 5862 5861 5860
5844 5845 5847 5849 5851 5853 5854 5856 5858 5860 5861 5863 5864 5865 5867 5868 5869 5870 5871 5871 5871 5872 5872 5872 5872 5871 5871 5870 5870 5869 5868 5867 5866 5865 5864 5863 5863 5862 5861 5861 5860 5859 5858
5841 5842 5844 5846 5848 5850 5852 5853 5855 5857 5858 5860 5862 5863 5864 5866 5867 5868 5868 5869 5869 5870 5870 5870 5870 5870 5869 5869 5868 5867 5866 5866 5865 5864 5863 5862 5861 5860 5860 5859 5858 5857 5856
5838 5840 5842 5843 5845 5847 5849 5851 5852 5854 5856 5857 5859 5860 5862 5863 5864 5865 5866 5867 5867 5867 5868 5868 5868 5868 5868 5867 5866 5866 5865 5864 5863 5862 5861 5860 5859 5859 5858 5857 5856 5855 5854
5835 5837 5838 5840 5842 5844 5846 5847 5849 5851 5853 5855 5856 5858 5859 5861 5862 5863 5864 5864 5865 5865 5866 5866 5866 5866 5866 5865 5865 5864 5863 5862 5861 5860 5860 5859 5858 5857 5856 5854 5853 5853 5851
5832 5833 5835 5837 5838 5840 5842 5844 5846 5848 5849 5851 5853 5855 5856 5858 5859 5860 5861 5862 5862 5863 5863 5864 5864 5864 5864 5863 5863 5862 5861 5860 5860 5859 5858 5857 5856 5855 5853 5852 5851 5849 5848
5829 5830 5832 5833 5835 5837 5839 5841 5842 5844 5846 5848 5850 5852 5853 5855 5856 5858 5859 5859 5860 5860 5861 5861 5862 5862 5861 5861 5860 5860 5859 5858 5858 5857 5856 5855 5854 5852 5851 5850 5848 5847 5846
5825 5826 5828 5829 5831 5833 5835 5837 5839 5841 5842 5844 5846 5848 5850 5852 5853 5855 5856 5857 5858 5858 5858 5859 5859 5859 5859 5858 5858 5857 5857 5856 5856 5855 5854 5852 5851 5850 5848 5847 5846 5844 5843
5821 5822 5824 5825 5827 5829 5831 5833 5835 5837 5839 5841 5843 5845 5847 5849 5850 5852 5853 5854 5855 5855 5856 5856 5856 5856 5856 5856 5855 5855 5854 5854 5853 5852 5851 5850 5848 5847 5846 5844 5843 5841 5840
5818 5818 5820 5821 5823 5825 5827 5829 5831 5833 5836 5838 5840 5841 5843 5845 5847 5849 5850 5851 5852 5852 5853 5853 5853 5853 5853 5853 5852 5852 5851 5851 5850 5849 5848 5847 5845 5844 5842 5841 5839 5838 5836
5814 5815 5817 5818 5820 5822 5824 5826 5828 5830 5832 5834 5836 5838 5840 5842 5844 5845 5847 5848 5848 5849 5849 5850 5850 5850 5850 5849 5849 5849 5848 5847 5847 5846 5844 5843 5842 5840 5839 5837 5836 5834 5833
5811 5812 5814 5815 5817 5819 5821 5822 5824 5826 5828 5831 5833 5835 5837 5839 5840 5841 5843 5844 5845 5846 5846 5846 5847 5847 5846 5846 5845 5845 5844 5844 5843 5842 5841 5839 5838 5836 5835 5833 5832 5831 5829
5808 5809 5811 5812 5814 5816 5818 5819 5821 5823 5825 5827 5829 5831 5833 5835 5836 5838 5839 5840 5841 5842 5842 5843 5843 5843 5843 5842 5841 5841 5840 5839 5839 5838 5836 5835 5834 5832 5831 5829 5828 5826 5824
5805 5807 5808 5809 5811 5813 5814 5816 5817 5819 5822 5824 5826 5827 5829 5831 5832 5834 5835 5836 5837 5838 5838 5839 5839 5839 5839 5838 5837 5837 5836 5835 5834 5833 5832 5830 5829 5828 5826 5824 5823 5821 5819
5802 5804 5805 5806 5808 5809 5811 5812 5814 5816 5818 5820 5822 5824 5825 5827 5828 5829 5831 5832 5832 5833 5834 5835 5835 5835 5835 5834 5833 5833 5832 5831 5830 5828 5827 5826 5824 5823 5821 5819 5818 5816 5813
5799 5800 5801 5802 5804 5805 5807 5809 5811 5813 5814 5816 5818 5819 5821 5822 5824 5825 5826 5827 5828 5829 5829 5830 5830 5831 5830 5830 5829 5828 5827 5826 5825 5824 5822 5821 5819 5818 5816 5814 5812 5810 5808
5795 5797 5798 5799 5800 5802 5803 5805 5807 5809 5811 5812 5814 5815 5816 5818 5819 5820 5821 5822 5823 5824 5825 5826 5826 5826 5826 5825 5824 5823 5822 5821 5820 5819 5817 5815 5814 5812 5810 5808 5806 5804 5801
5792 5793 5794 5795 5796 5798 5799 5801 5803 5805 5806 5808 5809 5811 5812 5813 5815 5816 5817 5818 5819 5820 5821 5821 5821 5821 5821 5820 5819 5818 5817 5816 5815 5813 5812 5810 5808 5806 5804 5802 5799 5797 5794
5788 5789 5790 5791 5792 5794 5795 5797 5799 5800 5802 5803 5805 5806 5808 5809 5810 5811 5812 5813 5814 5815 5816 5816 5816 5816 5816 5815 5815 5814 5812 5811 5810 5808 5806 5804 5802 5799 5797 5794 5792 5789 5787
5784 5785 5786 5787 5789 5790 5791 5793 5794 5796 5797 5798 5800 5801 5803 5804 5805 5806 5807 5808 5809 5810 5811 5811 5811 5811 5811 5810 5809 5808 5807 5806 5804 5802 5800 5797 5795 5792 5790 5787 5784 5782 5779
5780 5781 5782 5783 5785 5786 5787 5789 5790 5791 5792 5793 5795 5796 5797 5799 5800 5801 5802 5803 5804 5804 5805 5806 5806 5806 5805 5805 5804 5802 5801 5799 5798 5795 5793 5790 5788 5785 5782 5779 5777 5774 5770
5776 5777 5778 5779 5780 5781 5783 5784 5785 5786 5787 5788 5789 5791 5792 5793 5794 5796 5796 5797 5798 5799 5799 5800 5800 5800 5799 5798 5797 5796 5795 5793 5791 5789 5786 5783 5780 5778 5775 5772 5769 5765 5762